Tracking 27405 objects as of 2-Jun-2023
HD Live streaming from Space Station
objects crossing your sky now

STARLINK-3582

Track STARLINK-3582 now!
10-day predictions
STARLINK-3582 is classified as:


NORAD ID: 51873
Int'l Code: 2022-022X
Perigee: 546.2 km
Apogee: 547.6 km
Inclination: 53.2 °
Period: 95.4 minutes
Semi major axis: 6917 km
RCS: Unknown
Launch date: March 3, 2022
Source: United States (US)
Launch site: AIR FORCE EASTERN TEST RANGE (AFETR)
Your satellite tracking list
Your tracking list is empty




NASA's NSSDC Master Catalog

Two Line Element Set (TLE):
1 51873U 22022X   23152.45602860  .00000402  00000-0  43354-4 0  9995
2 51873  53.2157 233.2226 0001029  95.9640 264.1469 15.08836006 70303
Source of the keplerian elements: AFSPC